[[{"header":{"parameterUnit":"m.s-1","parameterCategory":1,"la1":30.2991,"la2":30.254,"lo1":-89.0895,"lo2":-89.0444,"dy":0.0017,"dx":0.0017,"nx":28,"ny":28,"refTime":"2024-08-19T03:00:00:Z","depth":0,"parameterNumber":2,"parameterNumberName":"U-component_of_WINDS"},"data":[0,0,0,0,0,0,0,0,0,0,0,0,0,0,0,0,0,0,0,0,0,0,0,0,0,0,0,0,0,0,0,0,0,0,0,0,0,0,0,0,0,0,0,0,0,0,0,0,0,0,0,0,0,0,0,0,0,0,4.4422,4.4423,0,4.4576,4.4578,4.4579,4.4487,4.4483,4.4478,4.4474,4.4638,4.4646,4.4655,0,0,0,0,0,0,0,0,0,0,0,0,0,4.4053,4.4061,4.4421,4.4423,4.4425,4.4576,4.4578,4.458,4.4488,4.4482,4.4477,4.4472,4.4635,4.4645,4.4655,0,0,0,0,0,0,0,0,0,0,0,0,0,4.4211,4.4063,4.4421,4.4397,4.4397,4.4575,4.4578,4.458,4.4489,4.4482,4.4476,4.4469,4.4632,4.4644,4.4657,4.4869,0,0,4.4696,4.4701,0,0,0,0,0,0,0,0,4.4202,4.4225,4.4399,4.4399,4.4399,4.4505,4.4508,4.4677,4.4491,4.4454,4.4474,4.4466,4.46,4.4615,4.4658,4.4877,4.4884,4.4697,4.4705,4.471,4.4714,0,0,0,0,0,0,0,4.4192,4.4218,4.4483,4.4402,4.4402,4.4381,4.4396,4.454,4.4563,4.4457,4.445,4.447,4.4598,4.4646,4.4662,4.4886,4.4697,4.4708,4.4716,4.4721,4.5288,4.5295,0,0,0,0,0,0,4.4182,4.4209,4.4478,4.4487,4.4282,4.4393,4.441,4.4478,4.4561,4.4567,4.4475,4.4465,4.4628,4.4647,4.4667,4.4922,4.471,4.4722,4.4729,4.5281,4.529,4.5298,0,0,0,0,0,0,4.4174,4.4206,4.4472,4.4347,4.4379,4.4406,4.4484,4.4485,4.4532,4.4574,4.4579,4.452,4.4623,4.4649,4.4819,4.4926,4.4728,4.4739,4.5272,4.5284,4.5294,4.5433,0,0,0,0,0,0,4.4164,4.4204,4.4284,4.4349,4.4386,4.462,4.449,4.4492,4.4554,4.4542,4.4617,4.4623,4.462,4.4801,4.4832,4.494,4.4749,4.5263,4.5277,4.529,4.5419,4.5447,4.5472,0,0,0,0,0,4.4151,4.4318,4.4288,4.4321,4.4485,4.4626,4.4648,4.4638,4.4563,4.4644,4.4671,4.4621,4.4909,4.4819,4.4853,4.4967,4.5256,4.5273,4.5289,4.5407,4.5442,4.5471,0,0,0,0,0,0,4.4266,4.4326,4.4294,4.4486,4.4552,4.461,4.4712,4.4675,4.4765,4.475,4.4737,4.4755,4.4933,4.4967,4.4865,4.5178,4.5071,4.5095,4.5149,4.5182,4.5208,4.5197,4.476,0,0,0,0,0,4.4314,4.4421,4.4468,4.4634,4.4668,4.4685,4.4746,4.4733,4.4801,4.4829,4.4869,4.4939,4.5045,4.5115,4.5215,4.5423,4.5439,4.5518,4.5545,4.5566,4.5588,4.5702,4.5738,4.5353,4.5352,4.5352,0,0,4.4414,4.4459,4.4529,4.4658,4.4707,4.4821,4.4709,4.4834,4.4919,4.4849,4.5011,4.5044,4.5121,4.5311,4.5397,4.5345,4.5698,4.5587,4.5604,4.5614,4.5723,4.5759,4.5791,4.5364,4.5362,4.536,0,0,4.4654,4.4699,4.4842,4.4893,4.4968,4.4978,4.5013,4.5078,4.5096,4.5258,4.5209,4.531,4.5493,4.5551,4.5604,4.5866,4.5824,4.5899,4.6038,4.6149,4.6179,4.6206,4.6301,4.6335,4.5921,4.5921,4.5921,0,4.4769,4.4936,4.4921,4.5049,4.5109,4.5048,4.5195,4.5246,4.5351,4.5394,4.5334,4.5563,4.561,4.5814,4.5878,4.5922,4.5963,4.5891,4.6176,4.6203,4.6228,4.6318,4.6354,4.593,4.5929,4.5928,4.5927,0,4.5075,4.5192,4.5299,4.54,4.5471,4.5608,4.5615,4.569,4.5671,4.5688,4.5856,4.5911,4.6021,4.6068,4.6052,4.6271,4.6236,4.6176,4.6069,4.6273,4.6358,4.6393,4.5942,4.5939,4.5936,4.5934,0,0,4.5393,4.5483,4.5523,4.5568,4.5647,4.5738,4.5873,4.5979,4.6044,4.6119,4.6233,4.6389,4.6335,4.6395,4.6385,4.6482,4.6688,4.6411,4.6412,4.6461,4.6934,4.6979,4.702,4.666,4.6667,4.6672,4.6928,0,4.5639,4.5872,4.5862,4.6081,4.619,4.6135,4.6253,4.6315,4.6335,4.6432,4.6454,4.6566,4.6484,4.6521,4.6615,4.6643,4.6783,4.6625,4.6769,4.6774,4.6752,4.7064,4.7112,4.7351,4.6961,4.6967,4.6971,0,4.5957,4.604,4.627,4.6333,4.6378,4.6484,4.6581,4.6674,4.6744,4.6752,4.682,4.6794,4.6933,4.6821,4.7013,4.6906,4.6964,4.6987,4.6996,4.7011,4.6885,4.7087,4.7427,4.7463,4.7023,4.7018,4.7015,0,4.6167,4.6337,4.6497,4.6537,4.6615,4.669,4.6727,4.679,4.6855,4.694,4.6983,4.7084,4.714,4.722,4.7223,4.7141,4.7419,4.7307,4.7431,4.7431,4.7492,4.7489,4.7847,4.7529,4.7528,4.7527,4.7527,0,4.6443,4.6586,4.6592,4.669,4.685,4.6838,4.6996,4.7025,4.7082,4.7187,4.7146,4.7245,4.7242,4.7344,4.7348,4.7507,4.7533,4.7545,4.7544,4.7549,4.7548,4.7588,4.7572,4.7537,4.7535,4.7533,4.7531,0,4.6705,4.6715,4.6885,4.6944,4.6962,4.7077,4.7128,4.7223,4.7239,4.7372,4.7402,4.7429,4.7546,4.7557,4.7694,4.7696,4.789,4.7871,4.7866,4.7863,4.7986,4.7975,4.8384,4.8438,4.8083,4.8087,4.809,0,4.6881,4.699,4.706,4.7126,4.7166,4.7273,4.7339,4.7332,4.7402,4.749,4.7575,4.7688,4.7778,4.7969,4.8002,4.8107,4.8091,4.8227,4.8107,4.8109,4.8095,4.8089,4.81,4.8251,4.8255,4.8258,4.8261,0,4.7194,4.7193,4.7287,4.7385,4.7464,4.754,4.7612,4.7669,4.7671,4.7752,4.7871,4.7941,4.808,4.8194,4.8297,4.8336,4.8301,4.8298,4.8332,4.8339,4.8332,4.8339,4.7931,4.8289,4.8286,4.8284,4.8282,4.8281,4.7419,4.7513,4.7577,4.7685,4.7737,4.7805,4.7897,4.7924,4.8022,4.8133,4.8124,4.8256,4.8325,4.8459,4.8506,4.8611,4.8565,4.8615,4.8628,4.864,4.8654,4.8314,4.8629,4.8629,4.8628,4.8627,4.8627,0,4.773,4.7768,4.7867,4.7968,4.8053,4.8008,4.8086,4.816,4.8276,4.8342,4.8432,4.8569,4.8679,4.872,4.8828,4.8904,4.8891,4.8933,4.8928,4.8938,4.8687,4.8647,4.8942,4.8942,4.8942,4.8942,4.8942,4.8942,4.7902,4.8059,4.8066,4.825,4.8287,4.8415,4.8463,4.8526,4.8579,4.8733,4.8824,4.8849,4.8906,4.9017,4.9117,4.9127,4.9169,4.9219,4.9222,4.8987,4.8956,4.8925,4.8887,4.9228,4.9229,4.9464,4.9466,4.9468]},{"header":{"parameterUnit":"m.s-1","parameterCategory":1,"la1":30.2991,"la2":30.254,"lo1":-89.0895,"lo2":-89.0444,"dy":0.0017,"dx":0.0017,"nx":28,"ny":28,"refTime":"2024-08-19T03:00:00:Z","depth":0,"parameterNumber":3,"parameterNumberName":"V-component_of_WINDS"},"data":[0,0,0,0,0,0,0,0,0,0,0,0,0,0,0,0,0,0,0,0,0,0,0,0,0,0,0,0,0,0,0,0,0,0,0,0,0,0,0,0,0,0,0,0,0,0,0,0,0,0,0,0,0,0,0,0,0,0,-0.741,-0.7411,0,-0.7469,-0.7469,-0.747,-0.7515,-0.7516,-0.7516,-0.7517,-0.7574,-0.7575,-0.7576,0,0,0,0,0,0,0,0,0,0,0,0,0,-0.7335,-0.7336,-0.741,-0.7411,-0.7411,-0.7469,-0.7469,-0.747,-0.7515,-0.7516,-0.7516,-0.7517,-0.7574,-0.7575,-0.7576,0,0,0,0,0,0,0,0,0,0,0,0,0,-0.7378,-0.7336,-0.741,-0.7441,-0.7444,-0.7468,-0.7469,-0.747,-0.7515,-0.7516,-0.7516,-0.7517,-0.7573,-0.7575,-0.7576,-0.7574,0,0,-0.7582,-0.7582,0,0,0,0,0,0,0,0,-0.7375,-0.738,-0.7436,-0.7439,-0.7443,-0.7485,-0.7464,-0.7505,-0.7515,-0.7488,-0.7517,-0.7517,-0.7544,-0.7548,-0.7557,-0.7576,-0.7579,-0.7582,-0.7583,-0.7583,-0.7584,0,0,0,0,0,0,0,-0.7372,-0.7378,-0.7433,-0.7436,-0.7441,-0.7451,-0.7458,-0.7472,-0.7511,-0.7491,-0.7494,-0.75,-0.7546,-0.7556,-0.7559,-0.758,-0.7582,-0.7583,-0.7584,-0.7585,-0.7599,-0.7599,0,0,0,0,0,0,-0.7365,-0.7375,-0.7431,-0.7435,-0.741,-0.7452,-0.746,-0.7471,-0.7511,-0.7518,-0.75,-0.7502,-0.7552,-0.7557,-0.7561,-0.7561,-0.7583,-0.7585,-0.7586,-0.76,-0.7599,-0.7598,0,0,0,0,0,0,-0.7363,-0.7369,-0.7429,-0.7406,-0.7415,-0.7453,-0.7465,-0.7472,-0.7482,-0.7519,-0.7526,-0.7503,-0.7553,-0.7559,-0.757,-0.7563,-0.7586,-0.7587,-0.7601,-0.76,-0.7599,-0.7559,0,0,0,0,0,0,-0.7361,-0.7368,-0.7368,-0.7406,-0.7416,-0.7438,-0.7465,-0.7472,-0.7485,-0.7489,-0.7523,-0.7529,-0.7554,-0.7568,-0.7572,-0.7566,-0.7589,-0.7601,-0.76,-0.7599,-0.7561,-0.7557,-0.7553,0,0,0,0,0,-0.7358,-0.7354,-0.7368,-0.7374,-0.7416,-0.7437,-0.7443,-0.7472,-0.7484,-0.7484,-0.7508,-0.7528,-0.7563,-0.7568,-0.7574,-0.7568,-0.7602,-0.7601,-0.7599,-0.7563,-0.7558,-0.7553,0,0,0,0,0,0,-0.7314,-0.736,-0.7375,-0.7384,-0.7406,-0.7445,-0.7445,-0.7465,-0.7484,-0.7487,-0.7522,-0.7529,-0.7537,-0.7554,-0.7558,-0.7567,-0.7585,-0.7585,-0.7556,-0.7551,-0.7547,-0.7543,-0.759,0,0,0,0,0,-0.7305,-0.7319,-0.7358,-0.7362,-0.7372,-0.7407,-0.7417,-0.7438,-0.7462,-0.7471,-0.7496,-0.7518,-0.7534,-0.7544,-0.7561,-0.7564,-0.7572,-0.7563,-0.7559,-0.7555,-0.7554,-0.7557,-0.7553,-0.7594,-0.7594,-0.7594,0,0,-0.7287,-0.7314,-0.732,-0.7354,-0.7373,-0.7386,-0.7414,-0.7427,-0.7436,-0.7473,-0.7486,-0.7504,-0.7531,-0.7539,-0.7543,-0.7553,-0.7545,-0.7554,-0.7551,-0.7551,-0.7555,-0.7551,-0.7548,-0.7593,-0.7593,-0.7593,0,0,-0.7261,-0.7283,-0.7288,-0.7308,-0.7338,-0.7361,-0.7362,-0.7398,-0.7412,-0.7425,-0.7453,-0.7465,-0.7492,-0.751,-0.7522,-0.7504,-0.7523,-0.7508,-0.7487,-0.7489,-0.7486,-0.7483,-0.7476,-0.7473,-0.7507,-0.7507,-0.7507,0,-0.7234,-0.7256,-0.7288,-0.7299,-0.7313,-0.7348,-0.7353,-0.737,-0.7404,-0.7412,-0.7423,-0.7458,-0.7478,-0.749,-0.7486,-0.7495,-0.7497,-0.7504,-0.7484,-0.7482,-0.748,-0.7473,-0.747,-0.7505,-0.7505,-0.7505,-0.7506,0,-0.7221,-0.7236,-0.7236,-0.7269,-0.7283,-0.729,-0.7324,-0.7334,-0.7353,-0.7375,-0.7388,-0.7414,-0.7437,-0.7441,-0.746,-0.7456,-0.7461,-0.7478,-0.7496,-0.7473,-0.7468,-0.7465,-0.7502,-0.7503,-0.7503,-0.7504,0,0,-0.7168,-0.7219,-0.7219,-0.7234,-0.727,-0.7281,-0.7291,-0.7314,-0.7321,-0.7343,-0.7352,-0.7374,-0.739,-0.7404,-0.7425,-0.7428,-0.7411,-0.7444,-0.7445,-0.7436,-0.7407,-0.7394,-0.7391,-0.7424,-0.7424,-0.7424,-0.7405,0,-0.7147,-0.7167,-0.7196,-0.7206,-0.7219,-0.7253,-0.7261,-0.7284,-0.7304,-0.7318,-0.7341,-0.7356,-0.7376,-0.7384,-0.7388,-0.7412,-0.7405,-0.7414,-0.7431,-0.7432,-0.7423,-0.7388,-0.7374,-0.7355,-0.7403,-0.7402,-0.7402,0,-0.7125,-0.7146,-0.7157,-0.7192,-0.7199,-0.7206,-0.7229,-0.7242,-0.7268,-0.7283,-0.73,-0.7323,-0.7334,-0.7352,-0.7367,-0.7372,-0.7382,-0.7394,-0.7394,-0.7396,-0.7415,-0.7388,-0.7349,-0.7346,-0.7399,-0.7399,-0.74,0,-0.7084,-0.7115,-0.7126,-0.7138,-0.7179,-0.7183,-0.72,-0.7228,-0.724,-0.726,-0.7268,-0.7289,-0.7301,-0.7316,-0.7345,-0.7355,-0.7357,-0.7377,-0.7369,-0.7368,-0.7367,-0.7366,-0.7328,-0.7374,-0.7374,-0.7374,-0.7374,0,-0.7057,-0.7062,-0.7108,-0.7114,-0.7121,-0.7155,-0.7161,-0.7181,-0.7205,-0.7216,-0.7246,-0.7255,-0.7292,-0.7306,-0.7328,-0.7337,-0.7342,-0.7354,-0.736,-0.7351,-0.7349,-0.7357,-0.7358,-0.7373,-0.7373,-0.7374,-0.7374,0,-0.7012,-0.7043,-0.7057,-0.7095,-0.7105,-0.7108,-0.7141,-0.7148,-0.7171,-0.7184,-0.7189,-0.7224,-0.7241,-0.7272,-0.7297,-0.7312,-0.7317,-0.7327,-0.7308,-0.7311,-0.7301,-0.7302,-0.7266,-0.7263,-0.7311,-0.731,-0.731,0,-0.6992,-0.6997,-0.7036,-0.7046,-0.7062,-0.7077,-0.709,-0.7124,-0.7136,-0.7166,-0.717,-0.719,-0.7207,-0.7233,-0.7261,-0.728,-0.7291,-0.7277,-0.7294,-0.7285,-0.729,-0.7289,-0.7289,-0.7273,-0.7272,-0.7271,-0.7271,0,-0.6953,-0.6969,-0.6986,-0.7009,-0.7024,-0.7043,-0.7064,-0.707,-0.7109,-0.7121,-0.7139,-0.7153,-0.718,-0.7198,-0.7222,-0.724,-0.7261,-0.7266,-0.7265,-0.7255,-0.7244,-0.7249,-0.7297,-0.7266,-0.7267,-0.7267,-0.7267,-0.7267,-0.692,-0.6926,-0.6955,-0.6973,-0.6993,-0.7012,-0.7021,-0.7045,-0.7061,-0.7086,-0.7105,-0.7122,-0.7148,-0.7183,-0.7199,-0.7212,-0.7222,-0.7221,-0.722,-0.7219,-0.7216,-0.7243,-0.7216,-0.7217,-0.7217,-0.7217,-0.7217,0,-0.6882,-0.6903,-0.6919,-0.6948,-0.6963,-0.6983,-0.7008,-0.7018,-0.7033,-0.7056,-0.7073,-0.7094,-0.7113,-0.7142,-0.7163,-0.7168,-0.7179,-0.7173,-0.7172,-0.7176,-0.7206,-0.7204,-0.7164,-0.7164,-0.7164,-0.7164,-0.7164,-0.7164,-0.6864,-0.6875,-0.6894,-0.6915,-0.6936,-0.6953,-0.6965,-0.6983,-0.7001,-0.7024,-0.704,-0.7059,-0.7085,-0.7108,-0.7126,-0.7134,-0.714,-0.713,-0.7141,-0.7169,-0.7174,-0.7178,-0.7177,-0.7132,-0.7132,-0.711,-0.711,-0.711]}]]